Auburn, AL

8:05 PM CST on November 12, 2019 (GMT -0600)
Auburn-opelika-pitts

Weather History for KAUO - June, 2019

Change the Weather History Date:

Saturday, June 1, 2019

  Actual Average Record
Temperature  
Mean Temperature 78 °F -  
Max Temperature 90 °F - 100 °F (2011)
Min Temperature 66 °F - 42 °F (1984)
Cooling Degree Days 13    
Month to date cooling degree days 13  
Year to date cooling degree days 429  
Since 1 June cooling degree days 13  
Growing Degree Days 28 (Base 50)    
Moisture  
Dew Point 62 °F    
Average Humidity 58    
Maximum Humidity 100    
Minimum Humidity 36    
Precipitation  
Precipitation 0.00 in - 1.80 in (1973)
Month to date precipitation 0.00  
Year to date precipitation 20.46  
Sea Level Pressure  
Sea Level Pressure 29.96 in    
Wind  
Wind Speed 5 mph (WNW)    
Max Wind Speed 12 mph    
Max Gust Speed 17 mph    
Visibility 10 miles    
Events      
T = Trace of Precipitation, MM = Missing Value Source: NWS Daily Summary

Daily Weather History Graph

Daily Weather History Graph

Search for Another Location

Airport or City:

Astronomy

Jun. 01, 2019 Rise Set
Actual Time 5:35 AM CDT 7:44 PM CDT
Civil Twilight 5:06 AM CDT 8:12 PM CDT
Nautical Twilight 4:32 AM CDT 8:46 PM CDT
Astronomical Twilight 3:55 AM CDT 9:23 PM CDT
Moon 4:29 AM CDT (6/1) 6:04 PM CDT (6/1)
Length of Visible Light 15h 05m
Length of Day
14h 09m
Waning Crescent, 4% of the Moon is Illuminated
Jun 1
Waning Crescent
Jun 3
New
Jun 10
First Quarter
Jun 17
Full
Jun 25
Last Quarter

Hourly Weather History & Observations

Time (CDT) Temp. Heat Index Dew Point Humidity Pressure Visibility Wind Dir Wind Speed Gust Speed Precip Events Conditions
12:56 AM 70.0 °F - 62.1 °F 76% 29.97 in 10.0 mi North 4.6 mph - N/A   Clear
1:56 AM 69.1 °F - 64.0 °F 84% 29.97 in 10.0 mi Calm Calm - N/A   Clear
2:56 AM 69.1 °F - 63.0 °F 81% 29.96 in 10.0 mi Calm Calm - N/A   Clear
3:56 AM 66.9 °F - 64.0 °F 90% 29.98 in 10.0 mi Calm Calm - N/A   Clear
4:56 AM 66.9 °F - 64.9 °F 93% 29.99 in 10.0 mi Calm Calm - N/A   Clear
5:56 AM 66.0 °F - - N/A% 30.00 in 10.0 mi Calm Calm - N/A   Clear
6:56 AM 70.0 °F - 70.0 °F 100% 30.01 in 10.0 mi Calm Calm - N/A   Clear
7:56 AM 75.9 °F - 62.1 °F 62% 30.00 in 10.0 mi Calm Calm - N/A   Clear
8:56 AM 80.1 °F 81.1 °F 61.0 °F 52% 30.00 in 10.0 mi WSW 4.6 mph - N/A   Clear
10:56 AM 84.9 °F 84.4 °F 59.0 °F 41% 29.99 in 10.0 mi WNW 6.9 mph - N/A   Clear
11:56 AM 84.9 °F 85.0 °F 61.0 °F 44% 29.98 in 10.0 mi WNW 10.4 mph 17.3 mph N/A   Clear
12:56 PM 88.0 °F 87.6 °F 60.1 °F 39% 29.96 in 10.0 mi WNW 11.5 mph 16.1 mph N/A   Clear
1:56 PM 88.0 °F 87.1 °F 59.0 °F 37% 29.95 in 10.0 mi West 9.2 mph - N/A   Clear
2:56 PM 89.1 °F 88.2 °F 59.0 °F 36% 29.93 in 10.0 mi WNW 6.9 mph - N/A   Clear
3:56 PM 89.1 °F 88.8 °F 60.1 °F 38% 29.92 in 10.0 mi Variable 6.9 mph - N/A   Clear
4:56 PM 89.1 °F 88.8 °F 60.1 °F 38% 29.92 in 10.0 mi NW 11.5 mph - N/A   Clear
5:56 PM 88.0 °F 87.6 °F 60.1 °F 39% 29.92 in 10.0 mi WNW 8.1 mph - N/A   Partly Cloudy
6:56 PM 86.0 °F 86.1 °F 61.0 °F 43% 29.93 in 10.0 mi WNW 4.6 mph - N/A   Mostly Cloudy
7:56 PM 82.0 °F 82.7 °F 61.0 °F 49% 29.93 in 10.0 mi Calm Calm - N/A   Clear
8:56 PM 80.1 °F 81.1 °F 61.0 °F 52% 29.92 in 10.0 mi NW 3.5 mph - N/A   Clear
9:56 PM 75.9 °F - 60.1 °F 58% 29.94 in 10.0 mi NNW 3.5 mph - N/A   Clear
10:56 PM 73.9 °F - 61.0 °F 64% 29.94 in 10.0 mi NNW 3.5 mph - N/A   Clear